Home > Weather > Waterbury > Past weeks

Flag for USA Past Weather in Waterbury, Connecticut, USA — Yesterday and Last 2 Weeks

Now
61 °F

Cool.


Feels Like: 61 °F
Forecast: 56 / 85 °F
Wind: No wind

Location: Oxford

Current Time: Jun 26, 2016 at 12:50:25 AM

Latest Report: Jun 26, 2016 at 12:35 AM


Visibility: 10 mi

Pressure: 30.25 "Hg

Humidity: 68%

Dew Point: 50 °F

Location of WaterburyLocation

Past Weather in Waterbury — Graph

°F

Waterbury Temperature Yesterday

Maximum temperature yesterday: 81 °F (at 1:50 PM)
Minimum temperature yesterday: 52 °F (at 5:35 AM)
Average temperature yesterday: 64 °F

High & Low Weather Summary for the Past Weeks

 TemperatureHumidityPressure
High82 °F (Jun 18, 2:50 PM)88% (Jun 11, 9:15 PM)30.35 "Hg (Jun 11, 9:15 PM)
Low45 °F (Jun 11, 4:15 AM)24% (Jun 21, 3:00 PM)29.61 "Hg (Jun 12, 8:50 AM)
Average64 °F63%29.97 "Hg
* Reported Jun 10 11:15 PM — Jun 25 11:35 PM, Waterbury, Weather by CustomWeather, © 2016

Note: Actual official high and low records may vary slightly from our data, if they occured in-between our weather recording intervals... More about our weather records

Advertising

Waterbury Weather History for the Previous 24 Hours

Scroll right to see more
 ConditionsComfort  
Time TempWeatherWind HumidityBarometerVisibility
11:35 PM
Sat, Jun 25
63 °FMild.6 mph68%30.25 "Hg10 mi
11:15 PM63 °FMild.5 mph68%30.24 "Hg10 mi
10:55 PM63 °FMild.5 mph64%30.24 "Hg10 mi
10:35 PM64 °FMild.6 mph64%30.24 "Hg10 mi
10:15 PM64 °FMild.5 mph64%30.24 "Hg10 mi
9:55 PM64 °FMild.6 mph60%30.23 "Hg10 mi
9:35 PM66 °FMild.3 mph56%30.23 "Hg10 mi
9:15 PM66 °FMild.6 mph56%30.23 "Hg10 mi
8:55 PM68 °FSunny.7 mph49%30.23 "Hg10 mi
7:50 PM72 °FSunny.12 mph47%30.21 "Hg10 mi
6:50 PM75 °FSunny.12 mph44%30.20 "Hg10 mi
5:50 PM79 °FPassing clouds.12 mph37%30.20 "Hg10 mi
4:50 PM81 °FPassing clouds.12 mph37%30.21 "Hg10 mi
3:50 PM81 °FScattered clouds.10 mph37%30.20 "Hg10 mi
2:50 PM81 °FPartly sunny.6 mph37%30.20 "Hg10 mi
1:50 PM81 °FPartly sunny.6 mph37%30.22 "Hg10 mi
12:50 PM79 °FPassing clouds.6 mph39%30.22 "Hg10 mi
11:50 AM79 °FPassing clouds.5 mph39%30.23 "Hg10 mi
10:55 AM77 °FSunny.5 mph44%30.23 "Hg10 mi
7:55 AM64 °FSunny.5 mph64%30.23 "Hg10 mi
6:55 AM59 °FSunny.5 mph72%30.22 "Hg10 mi
5:35 AM52 °FCool.5 mph82%30.20 "Hg10 mi
5:15 AM54 °FCool.No wind82%30.19 "Hg10 mi
4:55 AM54 °FCool.3 mph82%30.19 "Hg10 mi
4:35 AM54 °FCool.3 mph82%30.18 "Hg10 mi
4:15 AM54 °FCool.No wind82%30.17 "Hg10 mi
3:55 AM54 °FCool.No wind82%30.17 "Hg10 mi
3:35 AM54 °FCool.No wind82%30.16 "Hg10 mi
3:15 AM54 °FCool.No wind82%30.17 "Hg10 mi
2:55 AM54 °FCool.No wind82%30.17 "Hg10 mi
2:35 AM55 °FCool.No wind77%30.17 "Hg10 mi
2:15 AM55 °FCool.No wind77%30.18 "Hg10 mi
1:55 AM55 °FCool.3 mph77%30.17 "Hg10 mi
1:35 AM55 °FCool.No wind82%30.18 "Hg10 mi
1:15 AM57 °FCool.No wind72%30.17 "Hg10 mi
12:55 AM59 °FCool.No wind68%30.17 "Hg10 mi
12:35 AM61 °FCool.No wind68%30.17 "Hg10 mi
12:15 AM61 °FCool.No wind68%30.17 "Hg10 mi
Weather by CustomWeather, © 2016

See weather overviewHow to use our weather pages